Regional Weather Roundup
Issued by NWS

Home | Current Version | Previous Version | Graphics & Text | Print | Product List | Glossary On
Versions: 1 2 3 4 5 6 7 8 9 10 11 12 13 14 15 16 17 18 19 20 21 22 23 24 25 26 27 28 29 30 31 32 33 34 35 36 37 38 39 40 41 42 43 44 45 46 47 48 49 50
000
ASUS43 KFSD 290002
RWRSD

WEATHER ROUNDUP FOR SOUTH DAKOTA
NATIONAL WEATHER SERVICE SIOUX FALLS SD
700 PM CDT SAT MAR 28 2015

NOTE: "FAIR" INDICATES FEW OR NO CLOUDS BELOW 12,000 FEET WITH NO
SIGNIFICANT WEATHER AND/OR OBSTRUCTIONS TO VISIBILITY.


SDZ001>005-009-010-012>017-290100-
NORTHWEST AND NORTH CENTRAL SOUTH DAKOTA

CITY           SKY/WX    TMP DP  RH WIND       PRES   REMARKS
BUFFALO          N/A     70  37  29 NW49G72   29.53R
FAITH            N/A     75  30  19 SE12      29.53F
MOBRIDGE       MOSUNNY   64  36  35 S21G29    29.57F
$$

SDZ012>016-024>037-041>051-057-063-072>074-290100-
SOUTHWEST AND SOUTH CENTRAL SOUTH DAKOTA

CITY           SKY/WX    TMP DP  RH WIND       PRES   REMARKS
RAPID CTY ARPT PTSUNNY   82  21  10 W24G31    29.55F
PIERRE         SUNNY     66  36  32 SE18      29.60F
CUSTER         PTSUNNY   69  20  15 W21G31    29.71F
ELLSWORTH AFB  PTSUNNY   82  24  12 W14       29.55F
PHILIP         SUNNY     83  27  13 S16       29.53F
PINE RIDGE     SUNNY     79  24  13 W20G26    29.65F
SPEARFISH      FAIR      75  27  16 W18G28    29.60F
WINNER         FAIR      70  33  25 S26G36    29.67F
$$

SDZ004>011-016>023-039-040-290100-
NORTHEAST SOUTH DAKOTA

CITY           SKY/WX    TMP DP  RH WIND       PRES   REMARKS
ABERDEEN       CLEAR     56  31  38 S23G32    29.73F
WATERTOWN      CLEAR     50  29  44 S22G30    29.82F
SISSETON         N/A     51  31  46 S18       29.80F
$$

SDZ017-020-022-023-036>040-048>070-290100-
SOUTHEAST SOUTH DAKOTA

CITY           SKY/WX    TMP DP  RH WIND       PRES   REMARKS
SIOUX FALLS    CLEAR     51  27  39 S21G32    29.90F
HURON          CLEAR     56  30  37 S23G33    29.78F
MITCHELL       CLEAR     56  33  42 S30G36    29.83F
YANKTON        CLEAR     54  30  40 S20G29    29.90F
$$

ABBREVIATIONS USED IN REMARKS
   TC - TEMPERATURE IN CELSIUS
  WCI - WIND CHILL INDEX
   HX - HEAT INDEX
  VSB - VISIBILITY




USA.gov is the U.S. government's official web portal to all federal, state and local government web resources and services.